FW8408 Weather Reports


time (UTC)temp
F
wind
direction
speed
knots
gust
knots
rain 1hr
in
rain 24hr
in
rain mn
in
humidity
%
barometer
mb
20260505012030 53 155 5.2 10.4 0.00 0.00 0.00 74 1005.4
20260505011545 53 138 3.5 13.0 0.00 0.00 0.00 74 1005.4
20260505011030 52 188 3.5 13.0 0.00 0.00 0.00 74 1005.4
20260505010531 52 221 3.5 9.6 0.00 0.00 0.00 74 1005.3
20260505010041 52 225 3.5 8.7 0.00 0.00 0.00 74 1005.3
20260505005531 53 182 3.5 8.7 0.00 0.00 0.00 73 1005.3
20260505005031 53 242 3.5 7.0 0.00 0.00 0.00 73 1005.3
20260505004544 53 203 2.6 8.7 0.00 0.00 0.00 72 1005.2
20260505004031 53 204 3.5 8.7 0.00 0.00 0.00 71 1005.0
20260505003531 53 180 2.6 7.0 0.00 0.00 0.00 71 1005.0
20260505003040 54 192 1.7 7.0 0.00 0.00 0.00 70 1004.8
20260505002530 54 180 2.6 7.0 0.00 0.00 0.00 69 1004.7
20260505002031 54 178 2.6 6.1 0.00 0.00 0.00 68 1004.6
20260505001545 55 160 2.6 6.1 0.00 0.00 0.00 67 1004.6
20260505001030 56 159 2.6 6.1 0.00 0.00 0.00 65 1004.6
20260505000532 56 145 2.6 6.1 0.00 0.00 0.00 64 1004.5
20260505000103 57 187 2.6 6.1 0.00 0.00 0.00 62 1004.4
20260504235531 58 200 2.6 6.1 0.00 0.00 0.00 60 1004.5
20260504235031 59 187 1.7 6.1 0.00 0.00 0.00 58 1004.3
20260504234603 61 151 2.6 6.1 0.00 0.00 0.00 54 1004.3
20260504234031 63 139 2.6 6.1 0.00 0.00 0.00 50 1004.2
20260504233531 66 190 1.7 6.1 0.00 0.00 0.00 45 1004.2
20260504233040 68 206 1.7 5.2 0.00 0.00 0.00 40 1003.9
20260504232531 69 273 0.9 3.5 0.00 0.00 0.00 37 1003.9
20260504232032 69 265 0.9 4.3 0.00 0.00 0.00 38 1003.8
20260504231542 69 265 0.9 4.3 0.00 0.00 0.00 37 1003.7
20260504231031 69 304 0.9 7.8 0.00 0.00 0.00 37 1003.6
20260504230530 70 305 1.7 7.8 0.00 0.00 0.00 37 1003.6
20260504230039 70 229 1.7 6.1 0.00 0.00 0.00 37 1003.5
20260504225532 69 309 1.7 6.1 0.00 0.00 0.00 37 1003.5
20260504225031 69 276 1.7 6.1 0.00 0.00 0.00 36 1003.5
20260504224603 69 297 1.7 4.3 0.00 0.00 0.00 37 1003.5
20260504224030 69 306 0.9 4.3 0.00 0.00 0.00 37 1003.4
20260504223531 69 221 0.9 7.0 0.00 0.00 0.00 36 1003.3
20260504223048 69 275 2.6 7.8 0.00 0.00 0.00 36 1003.3
20260504222530 69 258 2.6 7.8 0.00 0.00 0.00 36 1003.2
20260504222030 69 309 1.7 8.7 0.00 0.00 0.00 37 1003.2
20260504221542 69 294 1.7 8.7 0.00 0.00 0.00 37 1003.2
20260504221031 69 300 3.5 10.4 0.00 0.00 0.00 37 1003.2
20260504220533 69 313 1.7 10.4 0.00 0.00 0.00 37 1003.1
20260504220040 70 331 3.5 10.4 0.00 0.00 0.00 36 1003.2
20260504215531 70 320 2.6 7.8 0.00 0.00 0.00 36 1003.2
20260504215030 70 304 1.7 8.7 0.00 0.00 0.00 36 1003.3
20260504214540 70 300 1.7 8.7 0.00 0.00 0.00 36 1003.4
20260504214030 70 280 4.3 8.7 0.00 0.00 0.00 36 1003.3
20260504213530 70 311 2.6 11.3 0.00 0.00 0.00 36 1003.2
20260504213121 70 292 1.7 11.3 0.00 0.00 0.00 36 1003.2
20260504212531 70 227 3.5 10.4 0.00 0.00 0.00 35 1003.1
20260504212029 70 308 3.5 11.3 0.00 0.00 0.00 35 1003.3
20260504211543 70 258 1.7 11.3 0.00 0.00 0.00 36 1003.3
20260504211029 70 316 4.3 11.3 0.00 0.00 0.00 35 1003.2
20260504210534 70 286 4.3 11.3 0.00 0.00 0.00 35 1003.1
20260504210041 70 328 7.0 11.3 0.00 0.00 0.00 33 1003.1
20260504205531 70 290 4.3 10.4 0.00 0.00 0.00 35 1003.2
20260504205030 70 302 4.3 12.2 0.00 0.00 0.00 36 1003.1
20260504204541 70 302 5.2 12.2 0.00 0.00 0.00 36 1003.1
20260504204030 70 257 3.5 9.6 0.00 0.00 0.00 36 1003.1
20260504203530 70 306 4.3 10.4 0.00 0.00 0.00 37 1003.1
20260504203040 70 280 4.3 10.4 0.00 0.00 0.00 36 1003.2
20260504202531 70 255 3.5 7.8 0.00 0.00 0.00 37 1003.2
20260504202030 70 310 0.9 6.1 0.00 0.00 0.00 38 1003.2
20260504201540 70 201 1.7 8.7 0.00 0.00 0.00 37 1003.2
20260504201031 70 309 0.9 8.7 0.00 0.00 0.00 38 1003.1
20260504200530 69 319 1.7 8.7 0.00 0.00 0.00 39 1003.2
20260504200049 69 252 1.7 6.1 0.00 0.00 0.00 39 1003.2
20260504195532 69 204 1.7 9.6 0.00 0.00 0.00 39 1003.2
20260504195031 69 257 4.3 9.6 0.00 0.00 0.00 37 1003.2
20260504194555 70 276 2.6 11.3 0.00 0.00 0.00 38 1003.0
20260504194031 69 309 5.2 11.3 0.00 0.00 0.00 39 1003.2
20260504193531 69 281 5.2 8.7 0.00 0.00 0.00 38 1003.1
20260504193051 69 322 4.3 8.7 0.00 0.00 0.00 38 1003.2
20260504192531 69 304 3.5 8.7 0.00 0.00 0.00 40 1003.3
20260504192032 69 274 2.6 9.6 0.00 0.00 0.00 40 1003.2
20260504191539 68 320 3.5 11.3 0.00 0.00 0.00 40 1003.4
20260504191031 67 335 6.1 11.3 0.00 0.00 0.00 41 1003.4
20260504190533 66 333 4.3 11.3 0.00 0.00 0.00 40 1003.5
20260504190041 66 306 3.5 11.3 0.00 0.00 0.00 39 1003.5
20260504185531 66 302 4.3 11.3 0.00 0.00 0.00 39 1003.5
20260504185030 66 323 2.6 10.4 0.00 0.00 0.00 38 1003.5
20260504184543 66 284 5.2 11.3 0.00 0.00 0.00 38 1003.5
20260504184031 66 288 4.3 12.2 0.00 0.00 0.00 38 1003.4
20260504183531 66 332 7.0 12.2 0.00 0.00 0.00 38 1003.5
20260504183040 66 302 2.6 12.2 0.00 0.00 0.00 38 1003.4
20260504182530 66 265 4.3 12.2 0.00 0.00 0.00 38 1003.3
20260504182031 66 300 7.0 11.3 0.00 0.00 0.00 37 1003.3
20260504181543 67 267 5.2 13.9 0.00 0.00 0.00 38 1003.3
20260504181031 67 286 7.0 13.9 0.00 0.00 0.00 37 1003.3
20260504180531 67 285 4.3 13.0 0.00 0.00 0.00 37 1003.3
20260504180039 67 302 6.1 13.9 0.00 0.00 0.00 36 1003.3
20260504175530 67 309 5.2 13.9 0.00 0.00 0.00 37 1003.3
20260504175033 67 322 5.2 13.0 0.00 0.00 0.00 37 1003.3
20260504174539 67 311 6.1 13.0 0.00 0.00 0.00 36 1003.2
20260504174031 68 321 5.2 9.6 0.00 0.00 0.00 35 1003.3
20260504173530 68 288 5.2 10.4 0.00 0.00 0.00 36 1003.2
20260504173048 68 211 7.0 16.5 0.00 0.00 0.00 36 1003.5
20260504172532 68 355 7.0 16.5 0.00 0.00 0.00 35 1003.3
20260504172031 69 205 4.3 13.9 0.00 0.00 0.00 35 1003.3
20260504171540 69 262 7.0 13.9 0.00 0.00 0.00 36 1003.1
20260504171032 68 286 7.0 13.0 0.00 0.00 0.00 36 1003.3
20260504170531 68 246 7.0 11.3 0.00 0.00 0.00 36 1003.4
20260504151030 61 298 6.1 9.6 0.00 0.00 0.00 47 1004.8
20260504150530 61 253 4.3 9.6 0.00 0.00 0.00 48 1004.6
20260504141030 59 205 1.7 13.0 0.00 0.00 0.00 52 1005.6
20260504140530 59 232 4.3 13.0 0.00 0.00 0.00 52 1005.6
20260504130531 54 310 2.6 7.8 0.00 0.00 0.00 62 1006.2
20260504110531 46 275 0.9 4.3 0.00 0.00 0.00 64 1006.7
20260504100530 44 252 0.9 2.6 0.00 0.00 0.00 64 1006.6
20260504090115 43 275 1.7 4.3 0.00 0.00 0.00 61 1006.5
20260504081542 42 292 1.7 3.5 0.00 0.00 0.00 63 1006.6
20260504081031 42 278 0.9 3.5 0.00 0.00 0.00 63 1006.6
20260504080528 42 279 0.9 2.6 0.00 0.00 0.00 63 1006.6
20260504050533 42 244 0.9 7.0 0.00 0.00 0.00 65 1006.5
20260504050107 42 254 1.7 7.0 0.00 0.00 0.00 65 1006.4
20260504045531 42 241 0.9 6.1 0.00 0.00 0.00 64 1006.5
20260504045031 42 248 0.9 6.1 0.00 0.00 0.00 64 1006.5
20260504044558 42 227 0.9 3.5 0.00 0.00 0.00 63 1006.4
20260504044031 42 259 0.9 3.5 0.00 0.00 0.00 63 1006.4
20260504043531 42 272 0.9 3.5 0.00 0.00 0.00 63 1006.3
20260504043044 42 276 1.7 3.5 0.00 0.00 0.00 63 1006.4
20260504042531 42 267 0.9 2.6 0.00 0.00 0.00 64 1006.3
20260504042030 42 250 0.9 2.6 0.00 0.00 0.00 64 1006.3
20260504041544 42 238 0.9 2.6 0.00 0.00 0.00 64 1006.4
20260504041030 42 253 0.9 2.6 0.00 0.00 0.00 64 1006.3
20260504040533 41 256 0.9 2.6 0.00 0.00 0.00 65 1006.3
20260504040046 41 266 0.9 2.6 0.00 0.00 0.00 65 1006.3
20260504035531 41 278 0.9 2.6 0.00 0.00 0.00 66 1006.2
20260504035029 41 280 0.9 2.6 0.00 0.00 0.00 66 1006.2
20260504034551 41 0 0.0 1.7 0.00 0.00 0.00 66 1006.1
20260504034030 41 0 0.0 2.6 0.00 0.00 0.00 65 1006.1
20260504033530 41 0 0.0 2.6 0.00 0.00 0.00 65 1006.1
20260504033054 42 0 0.0 0.0 0.00 0.00 0.00 64 1006.1
20260504032530 42 0 0.0 0.0 0.00 0.00 0.00 64 1006.1
20260504032032 42 0 0.0 0.0 0.00 0.00 0.00 64 1006.1
20260504031549 42 0 0.0 0.0 0.00 0.00 0.00 63 1006.0
20260504031030 43 0 0.0 0.9 0.00 0.00 0.00 63 1006.1
20260504030530 43 0 0.0 0.9 0.00 0.00 0.00 62 1006.1
20260504030050 43 0 0.0 1.7 0.00 0.00 0.00 62 1006.1
20260504025531 43 0 0.0 1.7 0.00 0.00 0.00 61 1006.0
20260504025033 43 290 0.9 1.7 0.00 0.00 0.00 61 1006.1
20260504024551 43 290 0.0 1.7 0.00 0.00 0.00 61 1006.0
20260504024030 43 290 0.9 1.7 0.00 0.00 0.00 61 1006.0
20260504023531 43 290 0.9 1.7 0.00 0.00 0.00 61 1006.0
20260504023047 43 290 0.9 1.7 0.00 0.00 0.00 61 1006.0
20260504022531 43 290 0.9 1.7 0.00 0.00 0.00 61 1006.0
20260504022030 43 290 0.0 1.7 0.00 0.00 0.00 61 1006.1
20260504021544 44 0 0.0 2.6 0.00 0.00 0.00 60 1006.1
20260504021031 44 0 0.0 2.6 0.00 0.00 0.00 60 1006.1
20260504020532 44 290 0.9 1.7 0.00 0.00 0.00 59 1006.2
20260504020051 44 290 0.0 1.7 0.00 0.00 0.00 59 1006.2
20260504015531 44 290 0.0 1.7 0.00 0.01 0.00 59 1006.2
20260504015031 45 290 0.0 2.6 0.00 0.01 0.00 59 1006.1
20260504014547 45 288 0.9 2.6 0.00 0.01 0.00 58 1006.0
20260504014030 45 265 0.9 3.5 0.00 0.01 0.00 58 1006.1
20260504013530 45 277 0.9 5.2 0.00 0.01 0.00 58 1006.1
20260504013051 46 288 2.6 5.2 0.00 0.01 0.00 58 1005.9
20260504012531 46 292 1.7 5.2 0.00 0.01 0.00 57 1005.8